Location: Forli
(44.2227°N, 12.0407°E)
Time: 18:23:13
(UTC+01:00)

ISS - Pass Details

Date: 18 February 2026
Orbit: 416 x 427 km, 51.6° (Epoch: 6 March)

Event Time Altitude Azimuth Distance (km) Brightness Sun altitude
Exits shadow 06:27:30 10° 287° (WNW) 1,483 -1.6 -7.8°
Maximum altitude 06:30:23 27° 347° (NNW) 842 -2.4 -7.3°
Drops below altitude 10° 06:33:18 10° 48° (NE) 1,495 -0.4 -6.7°
Sets 06:35:36 0° 61° (ENE) 2,358 0.9 -6.3°
